| time (UTC) | temp F | wind direction | speed MPH | gust MPH | rain 1hr in | rain 24hr in | rain mn in | humidity % | barometer mb |
| 20260504002001 | 77 | 200 | 9.0 | 13.0 | 0.00 | 0.00 | 0.00 | 34 | 1014.8 |
| 20260504001501 | 77 | 203 | 12.0 | 13.0 | 0.00 | 0.00 | 0.00 | 34 | 1014.9 |
| 20260504001001 | 77 | 204 | 10.0 | 13.0 | 0.00 | 0.00 | 0.00 | 33 | 1015.0 |
| 20260504000501 | 78 | 203 | 8.0 | 13.0 | 0.00 | 0.00 | 0.00 | 34 | 1015.0 |
| 20260504000001 | 78 | 202 | 10.0 | 13.0 | 0.00 | 0.00 | 0.00 | 34 | 1015.0 |
| 20260503235002 | 78 | 205 | 7.0 | 17.0 | 0.00 | 0.00 | 0.00 | 35 | 1015.1 |
| 20260503234001 | 78 | 208 | 12.0 | 17.0 | 0.00 | 0.00 | 0.00 | 32 | 1015.0 |
| 20260503233501 | 79 | 200 | 12.0 | 17.0 | 0.00 | 0.00 | 0.00 | 32 | 1015.2 |
| 20260503233001 | 79 | 200 | 11.0 | 17.0 | 0.00 | 0.00 | 0.00 | 33 | 1015.2 |
| 20260503231501 | 79 | 208 | 10.0 | 16.0 | 0.00 | 0.00 | 0.00 | 32 | 1015.3 |
| 20260503231001 | 79 | 189 | 13.0 | 13.0 | 0.00 | 0.00 | 0.00 | 31 | 1015.3 |
| 20260503230501 | 79 | 205 | 10.0 | 16.0 | 0.00 | 0.00 | 0.00 | 31 | 1015.3 |
| 20260503230001 | 79 | 189 | 12.0 | 19.0 | 0.00 | 0.00 | 0.00 | 30 | 1015.3 |
| 20260503225501 | 79 | 214 | 16.0 | 19.0 | 0.00 | 0.00 | 0.00 | 31 | 1015.3 |
| 20260503225001 | 79 | 205 | 10.0 | 18.0 | 0.00 | 0.00 | 0.00 | 31 | 1015.4 |
| 20260503224531 | 79 | 197 | 16.0 | 19.0 | 0.00 | 0.00 | 0.00 | 29 | 1015.3 |
| 20260503224003 | 80 | 199 | 14.0 | 19.0 | 0.00 | 0.00 | 0.00 | 30 | 1015.4 |
| 20260503223031 | 80 | 193 | 11.0 | 20.0 | 0.00 | 0.00 | 0.00 | 31 | 1015.5 |
| 20260503222531 | 80 | 195 | 9.0 | 20.0 | 0.00 | 0.00 | 0.00 | 31 | 1015.5 |
| 20260503222001 | 80 | 203 | 13.0 | 19.0 | 0.00 | 0.00 | 0.00 | 30 | 1015.5 |
| 20260503221502 | 80 | 226 | 14.0 | 17.0 | 0.00 | 0.00 | 0.00 | 31 | 1015.5 |
| 20260503221001 | 80 | 204 | 11.0 | 19.0 | 0.00 | 0.00 | 0.00 | 30 | 1015.6 |
| 20260503220532 | 80 | 191 | 10.0 | 23.0 | 0.00 | 0.00 | 0.00 | 31 | 1015.7 |
| 20260503220001 | 80 | 180 | 9.0 | 23.0 | 0.00 | 0.00 | 0.00 | 30 | 1015.8 |
| 20260503215502 | 80 | 216 | 13.0 | 20.0 | 0.00 | 0.00 | 0.00 | 31 | 1015.9 |
| 20260503215001 | 80 | 209 | 16.0 | 18.0 | 0.00 | 0.00 | 0.00 | 31 | 1015.9 |
| 20260503214531 | 80 | 207 | 11.0 | 17.0 | 0.00 | 0.00 | 0.00 | 31 | 1016.0 |
| 20260503214001 | 80 | 201 | 13.0 | 18.0 | 0.00 | 0.00 | 0.00 | 29 | 1016.1 |
| 20260503213002 | 80 | 205 | 13.0 | 19.0 | 0.00 | 0.00 | 0.00 | 32 | 1016.3 |
| 20260503212501 | 79 | 196 | 15.0 | 17.0 | 0.00 | 0.00 | 0.00 | 32 | 1016.3 |
| 20260503211031 | 80 | 231 | 10.0 | 18.0 | 0.00 | 0.00 | 0.00 | 33 | 1016.6 |
| 20260503210501 | 80 | 222 | 17.0 | 18.0 | 0.00 | 0.00 | 0.00 | 31 | 1016.6 |
| 20260503210001 | 79 | 204 | 11.0 | 18.0 | 0.00 | 0.00 | 0.00 | 33 | 1016.8 |
| 20260503205531 | 79 | 205 | 11.0 | 18.0 | 0.00 | 0.00 | 0.00 | 32 | 1016.9 |
| 20260503205031 | 80 | 207 | 13.0 | 24.0 | 0.00 | 0.00 | 0.00 | 32 | 1016.9 |
| 20260503204001 | 80 | 223 | 16.0 | 18.0 | 0.00 | 0.00 | 0.00 | 32 | 1017.0 |
| 20260503203531 | 79 | 220 | 16.0 | 18.0 | 0.00 | 0.00 | 0.00 | 30 | 1017.2 |
| 20260503203001 | 80 | 223 | 9.0 | 16.0 | 0.00 | 0.00 | 0.00 | 31 | 1017.4 |
| 20260503202531 | 80 | 235 | 6.0 | 19.0 | 0.00 | 0.00 | 0.00 | 34 | 1017.5 |
| 20260503202031 | 80 | 226 | 19.0 | 19.0 | 0.00 | 0.00 | 0.00 | 32 | 1017.4 |
| 20260503201502 | 80 | 187 | 12.0 | 17.0 | 0.00 | 0.00 | 0.00 | 31 | 1017.5 |
| 20260503200532 | 80 | 222 | 11.0 | 19.0 | 0.00 | 0.00 | 0.00 | 32 | 1017.7 |
| 20260503200032 | 80 | 241 | 15.0 | 19.0 | 0.00 | 0.00 | 0.00 | 30 | 1017.7 |
| 20260503195501 | 79 | 200 | 11.0 | 20.0 | 0.00 | 0.00 | 0.00 | 30 | 1017.8 |
| 20260503195001 | 80 | 220 | 17.0 | 25.0 | 0.00 | 0.00 | 0.00 | 31 | 1017.8 |
| 20260503194033 | 79 | 224 | 13.0 | 23.0 | 0.00 | 0.00 | 0.00 | 32 | 1018.1 |
| 20260503193502 | 79 | 239 | 20.0 | 23.0 | 0.00 | 0.00 | 0.00 | 36 | 1018.1 |
| 20260503193001 | 79 | 200 | 15.0 | 21.0 | 0.00 | 0.00 | 0.00 | 33 | 1018.2 |
| 20260503192502 | 79 | 247 | 11.0 | 20.0 | 0.00 | 0.00 | 0.00 | 38 | 1018.3 |
| 20260503191002 | 79 | 226 | 13.0 | 21.0 | 0.00 | 0.00 | 0.00 | 37 | 1018.5 |
| 20260503190501 | 79 | 233 | 15.0 | 23.0 | 0.00 | 0.00 | 0.00 | 37 | 1018.6 |
| 20260503190002 | 79 | 222 | 18.0 | 23.0 | 0.00 | 0.00 | 0.00 | 34 | 1018.6 |
| 20260503184502 | 79 | 252 | 15.0 | 20.0 | 0.00 | 0.00 | 0.00 | 38 | 1018.8 |
| 20260503184001 | 78 | 229 | 15.0 | 20.0 | 0.00 | 0.00 | 0.00 | 37 | 1018.9 |
| 20260503183001 | 78 | 232 | 15.0 | 19.0 | 0.00 | 0.00 | 0.00 | 37 | 1019.1 |
| 20260503182502 | 78 | 218 | 16.0 | 21.0 | 0.00 | 0.00 | 0.00 | 36 | 1019.1 |
| 20260503181502 | 78 | 250 | 11.0 | 21.0 | 0.00 | 0.00 | 0.00 | 40 | 1019.3 |
| 20260503180501 | 78 | 270 | 13.0 | 20.0 | 0.00 | 0.00 | 0.00 | 42 | 1019.4 |
| 20260503175532 | 78 | 230 | 16.0 | 21.0 | 0.00 | 0.00 | 0.00 | 41 | 1019.6 |
| 20260503175001 | 77 | 237 | 12.0 | 21.0 | 0.00 | 0.00 | 0.00 | 42 | 1019.7 |
| 20260503174501 | 77 | 248 | 15.0 | 19.0 | 0.00 | 0.00 | 0.00 | 42 | 1019.8 |
| 20260503174002 | 77 | 259 | 12.0 | 17.0 | 0.00 | 0.00 | 0.00 | 41 | 1019.9 |
| 20260503173502 | 77 | 238 | 13.0 | 18.0 | 0.00 | 0.00 | 0.00 | 40 | 1020.0 |
| 20260503173001 | 77 | 267 | 15.0 | 20.0 | 0.00 | 0.00 | 0.00 | 41 | 1020.0 |
| 20260503172502 | 77 | 237 | 16.0 | 20.0 | 0.00 | 0.00 | 0.00 | 41 | 1020.0 |
| 20260503172001 | 77 | 264 | 12.0 | 20.0 | 0.00 | 0.00 | 0.00 | 42 | 1020.1 |
| 20260503171502 | 77 | 221 | 13.0 | 19.0 | 0.00 | 0.00 | 0.00 | 42 | 1020.1 |
| 20260503171001 | 77 | 217 | 18.0 | 19.0 | 0.00 | 0.00 | 0.00 | 41 | 1020.3 |
| 20260503170501 | 77 | 260 | 15.0 | 16.0 | 0.00 | 0.00 | 0.00 | 41 | 1020.4 |
| 20260503150531 | 71 | 242 | 16.0 | 21.0 | 0.00 | 0.00 | 0.00 | 49 | 1020.7 |
| 20260503130501 | 58 | 219 | 7.0 | 9.0 | 0.00 | 0.00 | 0.00 | 75 | 1020.6 |
| 20260503110502 | 54 | 223 | 7.0 | 8.0 | 0.00 | 0.00 | 0.00 | 77 | 1019.7 |
| 20260503090502 | 57 | 228 | 6.0 | 7.0 | 0.00 | 0.00 | 0.00 | 73 | 1019.7 |
| 20260503081502 | 57 | 236 | 7.0 | 9.0 | 0.00 | 0.00 | 0.00 | 74 | 1019.6 |
| 20260503081002 | 57 | 236 | 8.0 | 9.0 | 0.00 | 0.00 | 0.00 | 74 | 1019.6 |
| 20260503080502 | 57 | 232 | 7.0 | 8.0 | 0.00 | 0.00 | 0.00 | 76 | 1019.6 |
| 20260503072502 | 57 | 233 | 8.0 | 9.0 | 0.00 | 0.00 | 0.00 | 75 | 1019.9 |
| 20260503072002 | 57 | 235 | 8.0 | 9.0 | 0.00 | 0.00 | 0.00 | 75 | 1019.9 |
| 20260503071502 | 57 | 228 | 8.0 | 9.0 | 0.00 | 0.00 | 0.00 | 74 | 1019.9 |
| 20260503071002 | 57 | 227 | 8.0 | 9.0 | 0.00 | 0.00 | 0.00 | 74 | 1019.9 |
| 20260503070502 | 58 | 228 | 8.0 | 9.0 | 0.00 | 0.00 | 0.00 | 73 | 1019.9 |
| 20260503054502 | 60 | 232 | 8.0 | 8.0 | 0.00 | 0.00 | 0.00 | 67 | 1019.8 |
| 20260503054002 | 60 | 231 | 7.0 | 7.0 | 0.00 | 0.00 | 0.00 | 66 | 1019.8 |
| 20260503053502 | 61 | 225 | 7.0 | 7.0 | 0.00 | 0.00 | 0.00 | 65 | 1019.7 |
| 20260503053002 | 61 | 225 | 7.0 | 7.0 | 0.00 | 0.00 | 0.00 | 65 | 1019.7 |
| 20260503052502 | 61 | 228 | 7.0 | 7.0 | 0.00 | 0.00 | 0.00 | 65 | 1019.7 |
| 20260503052002 | 61 | 231 | 7.0 | 7.0 | 0.00 | 0.00 | 0.00 | 66 | 1019.6 |
| 20260503051002 | 61 | 232 | 7.0 | 7.0 | 0.00 | 0.00 | 0.00 | 65 | 1019.6 |
| 20260503050503 | 61 | 232 | 7.0 | 7.0 | 0.00 | 0.00 | 0.00 | 64 | 1019.6 |
| 20260503050002 | 61 | 235 | 7.0 | 7.0 | 0.00 | 0.00 | 0.00 | 64 | 1019.6 |
| 20260503045502 | 61 | 233 | 7.0 | 7.0 | 0.00 | 0.00 | 0.00 | 64 | 1019.6 |
| 20260503045002 | 61 | 229 | 7.0 | 7.0 | 0.00 | 0.00 | 0.00 | 64 | 1019.6 |
| 20260503044532 | 61 | 230 | 7.0 | 7.0 | 0.00 | 0.00 | 0.00 | 64 | 1019.6 |
| 20260503043502 | 62 | 231 | 7.0 | 8.0 | 0.00 | 0.00 | 0.00 | 64 | 1019.6 |
| 20260503043002 | 62 | 229 | 7.0 | 8.0 | 0.00 | 0.00 | 0.00 | 64 | 1019.6 |
| 20260503042534 | 62 | 228 | 7.0 | 8.0 | 0.00 | 0.00 | 0.00 | 63 | 1019.6 |
| 20260503042032 | 62 | 229 | 7.0 | 8.0 | 0.00 | 0.00 | 0.00 | 63 | 1019.6 |
| 20260503040532 | 63 | 229 | 7.0 | 8.0 | 0.00 | 0.00 | 0.00 | 62 | 1019.6 |
| 20260503040002 | 63 | 225 | 7.0 | 7.0 | 0.00 | 0.00 | 0.00 | 61 | 1019.6 |
| 20260503035502 | 63 | 223 | 7.0 | 8.0 | 0.00 | 0.00 | 0.00 | 61 | 1019.6 |
| 20260503035002 | 63 | 223 | 7.0 | 8.0 | 0.00 | 0.00 | 0.00 | 61 | 1019.6 |
| 20260503034502 | 64 | 230 | 7.0 | 7.0 | 0.00 | 0.00 | 0.00 | 61 | 1019.6 |
| 20260503034002 | 64 | 228 | 6.0 | 7.0 | 0.00 | 0.00 | 0.00 | 61 | 1019.6 |
| 20260503033502 | 64 | 223 | 7.0 | 7.0 | 0.00 | 0.00 | 0.00 | 61 | 1019.6 |
| 20260503033002 | 64 | 225 | 7.0 | 7.0 | 0.00 | 0.00 | 0.00 | 60 | 1019.6 |
| 20260503032502 | 64 | 221 | 6.0 | 7.0 | 0.00 | 0.00 | 0.00 | 60 | 1019.6 |
| 20260503032002 | 64 | 226 | 7.0 | 7.0 | 0.00 | 0.00 | 0.00 | 60 | 1019.6 |
| 20260503031502 | 64 | 229 | 6.0 | 7.0 | 0.00 | 0.00 | 0.00 | 59 | 1019.5 |
| 20260503030502 | 65 | 229 | 6.0 | 7.0 | 0.00 | 0.00 | 0.00 | 58 | 1019.4 |
| 20260503030002 | 66 | 218 | 6.0 | 6.0 | 0.00 | 0.00 | 0.00 | 57 | 1019.3 |
| 20260503025502 | 66 | 226 | 6.0 | 6.0 | 0.00 | 0.00 | 0.00 | 57 | 1019.3 |
| 20260503025032 | 66 | 232 | 6.0 | 6.0 | 0.00 | 0.00 | 0.00 | 56 | 1019.3 |
| 20260503024503 | 66 | 217 | 6.0 | 6.0 | 0.00 | 0.00 | 0.00 | 56 | 1019.2 |
| 20260503024002 | 66 | 217 | 6.0 | 6.0 | 0.00 | 0.00 | 0.00 | 55 | 1019.2 |
| 20260503022002 | 67 | 216 | 5.0 | 5.0 | 0.00 | 0.00 | 0.00 | 54 | 1019.0 |
| 20260503021502 | 67 | 225 | 5.0 | 5.0 | 0.00 | 0.00 | 0.00 | 54 | 1019.0 |
| 20260503021002 | 67 | 228 | 5.0 | 5.0 | 0.00 | 0.00 | 0.00 | 54 | 1019.0 |
| 20260503020502 | 68 | 231 | 5.0 | 5.0 | 0.00 | 0.00 | 0.00 | 54 | 1019.0 |
| 20260503020002 | 68 | 216 | 5.0 | 5.0 | 0.00 | 0.00 | 0.00 | 53 | 1018.9 |
| 20260503015002 | 68 | 220 | 5.0 | 5.0 | 0.00 | 0.00 | 0.00 | 52 | 1018.9 |
| 20260503014502 | 68 | 227 | 5.0 | 5.0 | 0.00 | 0.00 | 0.00 | 52 | 1018.9 |
| 20260503014002 | 69 | 225 | 5.0 | 5.0 | 0.00 | 0.00 | 0.00 | 52 | 1018.9 |
| 20260503013502 | 69 | 228 | 5.0 | 5.0 | 0.00 | 0.00 | 0.00 | 52 | 1018.8 |
| 20260503012002 | 70 | 236 | 3.0 | 4.0 | 0.00 | 0.00 | 0.00 | 50 | 1018.7 |
| 20260503011502 | 70 | 232 | 3.0 | 4.0 | 0.00 | 0.00 | 0.00 | 49 | 1018.7 |
| 20260503011003 | 71 | 225 | 4.0 | 4.0 | 0.00 | 0.00 | 0.00 | 48 | 1018.6 |
| 20260503005502 | 72 | 183 | 3.0 | 4.0 | 0.00 | 0.00 | 0.00 | 48 | 1018.6 |
| 20260503005002 | 72 | 233 | 3.0 | 5.0 | 0.00 | 0.00 | 0.00 | 47 | 1018.5 |
| 20260503004502 | 73 | 218 | 4.0 | 5.0 | 0.00 | 0.00 | 0.00 | 45 | 1018.5 |
| 20260503004034 | 73 | 235 | 3.0 | 5.0 | 0.00 | 0.00 | 0.00 | 44 | 1018.5 |
| 20260503003502 | 73 | 226 | 3.0 | 5.0 | 0.00 | 0.00 | 0.00 | 44 | 1018.5 |
| 20260503003002 | 73 | 228 | 4.0 | 6.0 | 0.00 | 0.00 | 0.00 | 43 | 1018.5 |
| 20260503002502 | 73 | 226 | 5.0 | 7.0 | 0.00 | 0.00 | 0.00 | 43 | 1018.5 |